Baker, MT

8:24 PM MDT on August 30, 2016 (GMT -0600)
Baker Municipal

Weather History for KBHK - November, 2013

Change the Weather History Date:

Monday, November 18, 2013

  Actual Average Record
Temperature  
Mean Temperature 36 °F -  
Max Temperature 52 °F 24 °F 60 °F (2008)
Min Temperature 19 °F 20 °F 0 °F (2014)
Degree Days  
Heating Degree Days 30    
Moisture  
Dew Point 21 °F    
Average Humidity 64    
Maximum Humidity 85    
Minimum Humidity 28    
Precipitation  
Precipitation 0.00 in - - ()
Sea Level Pressure  
Sea Level Pressure 29.99 in    
Wind  
Wind Speed 4 mph (South)    
Max Wind Speed 10 mph    
Max Gust Speed -    
Visibility 10 miles    
Events      
Averages and records for this station are not official NWS values.
T = Trace of Precipitation, MM = Missing Value Source: NWS Daily Summary

Daily Weather History Graph

Daily Weather History Graph

Search for Another Location

Airport or City:

Trip Planner

Search our weather history database for the weather conditions in past years. The results will help you decide how hot, cold, wet, or windy it might be!

Date:

Astronomy

Nov. 18, 2013 Rise Set
Actual Time 7:03 AM MST 4:20 PM MST
Civil Twilight 6:30 AM MST 4:53 PM MST
Nautical Twilight 5:53 AM MST 5:30 PM MST
Astronomical Twilight 5:17 AM MST 6:06 PM MST
Moon 5:24 PM MST (11/18) 7:54 AM MST (11/18)
Length of Visible Light 10h 23m
Length of Day
9h 17m
Full, 99% of the Moon is Illuminated
Nov 18
Full
Nov 25
Last Quarter
Dec 2
New
Dec 9
First Quarter
Dec 17
Full

Hourly Weather History & Observations

Time (MST) Temp. Windchill Dew Point Humidity Pressure Visibility Wind Dir Wind Speed Gust Speed Precip Events Conditions
12:51 AM 21.0 °F 16.2 °F 17.1 °F 85% 30.05 in 10.0 mi ESE 3.5 mph - N/A   Clear
1:51 AM 25.0 °F - 19.0 °F 78% 30.04 in 10.0 mi Calm Calm - N/A   Clear
2:51 AM 26.1 °F 16.8 °F 19.0 °F 75% 30.04 in 10.0 mi SSW 9.2 mph - N/A   Clear
3:51 AM 24.1 °F 16.0 °F 17.1 °F 75% 30.03 in 10.0 mi SSW 6.9 mph - N/A   Clear
4:51 AM 21.9 °F - 17.1 °F 82% 30.05 in 10.0 mi Calm Calm - N/A   Clear
5:51 AM 19.9 °F - 15.1 °F 81% 30.06 in 10.0 mi Calm Calm - N/A   Clear
6:51 AM 23.0 °F - 18.0 °F 81% 30.06 in 10.0 mi Calm Calm - N/A   Clear
7:51 AM 27.0 °F 21.6 °F 21.0 °F 78% 30.05 in 10.0 mi ESE 4.6 mph - N/A   Clear
8:51 AM 30.9 °F - 25.0 °F 79% 30.05 in 10.0 mi Calm Calm - N/A   Clear
9:51 AM 44.1 °F 40.1 °F 23.0 °F 43% 30.04 in 10.0 mi SSW 6.9 mph - N/A   Clear
10:51 AM 48.9 °F - 19.9 °F 32% 30.01 in 10.0 mi WSW 6.9 mph - N/A   Clear
11:51 AM 50.0 °F - 19.9 °F 31% 29.99 in 10.0 mi SW 10.4 mph - N/A   Clear
12:51 PM 52.0 °F - 19.9 °F 28% 29.98 in 10.0 mi SW 9.2 mph - N/A   Clear
1:51 PM 52.0 °F - 19.9 °F 28% 29.97 in 10.0 mi SW 9.2 mph - N/A   Clear
2:51 PM 51.1 °F - 21.0 °F 31% 29.96 in 10.0 mi WSW 6.9 mph - N/A   Clear
3:51 PM 43.0 °F 38.8 °F 21.9 °F 43% 29.97 in 10.0 mi South 6.9 mph - N/A   Clear
4:51 PM 34.0 °F 29.8 °F 24.1 °F 67% 29.99 in 10.0 mi SSE 4.6 mph - N/A   Clear
5:51 PM 34.0 °F 28.8 °F 24.1 °F 67% 29.99 in 10.0 mi SE 5.8 mph - N/A   Clear
6:51 PM 35.1 °F - 26.1 °F 70% 29.96 in 10.0 mi Calm Calm - N/A   Clear
7:51 PM 36.0 °F 33.3 °F 25.0 °F 64% 29.94 in 10.0 mi SSE 3.5 mph - N/A   Clear
8:51 PM 30.0 °F 25.2 °F 24.1 °F 79% 29.93 in 10.0 mi East 4.6 mph - N/A   Clear
9:51 PM 28.9 °F 22.8 °F 23.0 °F 78% 29.88 in 10.0 mi East 5.8 mph - N/A   Clear
10:51 PM 28.9 °F 19.8 °F 24.1 °F 82% 29.84 in 10.0 mi ESE 10.4 mph - N/A   Clear
11:51 PM 28.9 °F 21.1 °F 23.0 °F 78% 29.82 in 10.0 mi East 8.1 mph - N/A   Clear